Home   Weather   Khon Kaen   Past weeks
Flag for Thailand

Past Weather in Khon Kaen, Thailand — Yesterday and Last 2 Weeks

Now
90 °F

Broken clouds.


Feels Like: 98 °F
Forecast: 88 / 79 °F
Wind: 5 mph from Northwest

Location: Khon Kaen Airport

Current Time: Jul 22, 2019 at 4:53:15 pm

Latest Report: Jul 22, 2019 at 4:00 pm


Visibility: N/A

Pressure: 29.68 "Hg

Humidity: 59%

Dew Point: 73 °F

Location of Khon KaenLocation

Past Weather in Khon Kaen — Graph

°F

Khon Kaen Temperature Yesterday

Maximum temperature yesterday: 97 °F (at 1:00 pm)
Minimum temperature yesterday: 77 °F (at 12:00 am)
Average temperature yesterday: 84 °F

High & Low Weather Summary for the Past Weeks

 TemperatureHumidityPressure
High102 °F (Jul 20, 4:00 pm)100% (Jul 17, 3:00 am)29.86 "Hg (Jul 17, 3:00 am)
Low75 °F (Jul 16, 6:00 am)40% (Jul 18, 3:00 pm)29.53 "Hg (Jul 17, 5:00 pm)
Average87 °F68%29.70 "Hg
* Reported Jul 7 3:00 pm — Jul 22 3:00 pm, Khon Kaen. Weather by CustomWeather, © 2019

Note: Actual official high and low records may vary slightly from our data, if they occured in-between our weather recording intervals... More about our weather records

Advertising

Khon Kaen Weather History for the Previous 24 Hours

Scroll right to see more
 ConditionsComfort  
Time TempWeatherWind HumidityBarometerVisibility
3:00 pm
Mon, Jul 22
90 °FBroken clouds.7 mph63%29.71 "HgN/A
2:00 pm90 °FBroken clouds.7 mph59%29.71 "HgN/A
1:00 pm90 °FBroken clouds.7 mph59%29.77 "HgN/A
12:00 pm90 °FPartly sunny.7 mph63%29.77 "HgN/A
11:00 am90 °FBroken clouds.5 mph67%29.77 "HgN/A
10:00 am86 °FBroken clouds.6 mph75%29.77 "HgN/A
9:00 am84 °FBroken clouds.6 mph79%29.77 "HgN/A
8:00 am82 °FBroken clouds.3 mph84%29.77 "HgN/A
7:00 am79 °FBroken clouds.2 mph94%29.77 "Hg6 mi
6:00 am79 °FBroken clouds.2 mph94%29.74 "Hg6 mi
5:00 am77 °FPassing clouds.1 mph94%29.74 "Hg6 mi
4:00 am79 °FPassing clouds.2 mph89%29.71 "Hg6 mi
3:00 am79 °FPassing clouds.2 mph94%29.74 "Hg6 mi
2:00 am79 °FClear.2 mph94%29.74 "Hg6 mi
1:00 am79 °FPassing clouds.1 mph94%29.74 "Hg6 mi
12:00 am81 °FPassing clouds.1 mph89%29.74 "HgN/A
11:00 pm
Sun, Jul 21
81 °FPartly cloudy.2 mph89%29.77 "HgN/A
10:00 pm82 °FPartly cloudy.3 mph84%29.77 "HgN/A
9:00 pm82 °FPartly cloudy.5 mph84%29.74 "HgN/A
8:00 pm84 °FPartly cloudy.3 mph74%29.71 "HgN/A
7:00 pm86 °FPassing clouds.8 mph70%29.68 "HgN/A
6:00 pm88 °FBroken clouds.6 mph66%29.65 "HgN/A
5:00 pm90 °FScattered clouds.6 mph63%29.65 "HgN/A
4:00 pm91 °FPartly sunny.5 mph59%29.65 "HgN/A
Weather by CustomWeather, © 2019

See weather overview